Location: Newark
(45.8667°N, 9.7333°E)
Time: 01:57:27
(UTC+00:00)

Vanguard 2 Rocket - Pass Details

Date: 27 January 2020
Orbit: 554 x 3327 km, 32.9° (Epoch: 21 February)

Event Time Altitude Azimuth Distance (km) Brightness Sun altitude
Rises 07:48:53 0° 254° (WSW) 3,370 9.5 8.0°
Reaches altitude 10° 07:51:35 10° 238° (WSW) 2,714 9.2 8.3°
Maximum altitude 07:56:29 22° 190° (S) 2,485 9.6 9.0°
Drops below altitude 10° 08:03:30 10° 145° (SE) 4,062 12.2 10.0°
Sets 08:08:47 0° 133° (SE) 5,620 13.2 10.7°
